332  
ASUS41 KPHI 202112  
RWRPHI  
 
REGIONAL WEATHER ROUNDUP  
NATIONAL WEATHER SERVICE MOUNT HOLLY NJ  
400 PM EST SUN JAN 20 2019  
 
NOTE: "FAIR" INDICATES FEW OR NO CLOUDS BELOW 12,000 FEET WITH NO  
SIGNIFICANT WEATHER AND/OR S TO VISIBILITY
.  
 
* = STATION DOES NOT REPORT PRECIPITATION (E.G. RAIN, SNOW, ETC.)  
OR FOG.
 
 
NJZ015>026-202200-  
SOUTHERN NEW JERSEY  
 
CITY SKY/WX TMP DP RH WIND PRES REMARKS
 
POMONA CLOUDY 32 25 75 NW25G40 29.48R WCI 19  
WILDWOOD* FAIR 34 22 61 NW23G33 29.52R WCI 22  
MILLVILLE FAIR 31 17 56 NW23G37 29.53R WCI 18  
WRIGHTSTOWN FAIR 29 16 57 NW21G32 29.47R WCI 16  
MOUNT HOLLY FAIR 30 16 56 NW17G31 29.53R WCI 18  
TRENTON FAIR 28 14 55 NW13G31 29.53R WCI 17  
 

 
NJZ001>014-202200-  
NORTHERN NEW JERSEY  
 
CITY SKY/WX TMP DP RH WIND PRES REMARKS
 
SUSSEX MIX PCPN 20 12 71 N13G21 29.52R WCI 7  
ANDOVER* N/A 19 11 70 NW9G24 29.52R WCI 8  
MORRISTOWN PTCLDY 25 16 68 N17G37 29.51R WCI 11  
NEWARK MOCLDY 30 18 60 NW16G32 29.46R WCI 19  
TETERBORO MOCLDY 29 18 63 NW18G32 29.44R WCI 16  
CALDWELL FAIR 26 16 65 NW17G23 29.48R WCI 13  
SOMERVILLE FAIR 26 13 57 NW21G33 29.51R WCI 12  
ALLAIRE* FAIR 30 19 63 NW30G36 29.45R WCI 15  
TOMS RIVER* FAIR 30 21 69 NW21G36 29.47R WCI 17  
 

 
PAZ043-044-047-054-055-060>062-066>071-202200-  
EASTERN PENNSYLVANIA  
 
CITY SKY/WX TMP DP RH WIND PRES REMARKS
 
PHILADELPHIA FAIR 29 13 51 NW23G31 29.58R WCI 15  
NORTH PHILA FAIR 31 14 49 NW22G32 29.56R WCI 18  
BLUE BELL* FAIR 27 16 63 NW10G23 29.58R WCI 17  
DOYLESTOWN FAIR 27 13 55 NW16G26 29.53R WCI 15  
QUAKERTOWN* PTCLDY 25 12 58 W16G25 29.56R WCI 12  
PERKASIE* MOCLDY 25 14 63 NW7G31 29.56R WCI 17  
POTTSTOWN FAIR 24 12 60 NW15G23 29.60R WCI 11  
LANCASTER FAIR 28 14 55 NW28G37 29.63R WCI 13  
COATESVILLE FAIR 27 16 63 NW21 29.59R WCI 13  
READING FAIR 24 13 62 NW31G38 29.62R WCI 7  
ALLENTOWN MOCLDY 25 12 58 NW15 29.59R WCI 13  
MOUNT POCONO LGT SNOW 8 4 83 NW30G47 29.44R FOG WCI -15  
HAZLETON CLOUDY 14 9 79 NW15G25 29.58R WCI -1  
LEHIGHTON CLOUDY 21 10 63 NW14G21 29.62R WCI 8  
WILKES BARRE MIX PCPN 13 4 67 NW23G35 29.63R WCI -6  
 

 
DEZALL-MDZ008-012-015-019-020-202200-  
DELAWARE AND EASTERN MARYLAND  
 
CITY SKY/WX TMP DP RH WIND PRES REMARKS
 
WILMINGTON FAIR 30 17 58 NW20G33 29.58R WCI 17  
DOVER FAIR 33 21 60 NW28G37 29.55R WCI 20  
GEORGETOWN FAIR 39 23 52 NW15G28 29.54R WCI 31  
EASTON MOSUNNY 36 19 51 NW20G39 29.64R WCI 25  
PATUXENT FAIR 36 21 54 NW31G41 29.62 WCI 23  
OCEAN CITY FAIR 39 28 64 NW18G32 29.50R WCI 30  
WALLOPS ISLAND CLOUDY 39 24 55 NW24G32 29.54R WCI 28  
SALISBURY FAIR 38 26 62 NW21G32 29.55R WCI 28  
 

 
PAZ001-021-NYZ056-072-MDZ011-DCZ001-202200-  
OTHER NEARBY LOCATIONS  
 
CITY SKY/WX TMP DP RH WIND PRES REMARKS
 
HARRISBURG PTSUNNY 25 12 58 NW26G37 29.69R WCI 9  
STATE COLLEGE CLOUDY 16 7 67 NW18G31 29.74R WCI -1  
WILLIAMSPORT CLOUDY 20 8 60 NW13 29.71R WCI 7  
BINGHAMTON FOG 5 1 83 NW14G22 29.60R VSB 1/2 WCI -12  
NEW YORK CITY CLOUDY 30 18 60 MISG 29.44R  
BALTIMORE FAIR 31 17 56 NW26G38 29.65R WCI 17  
WASHINGTON DC FAIR 33 14 45 NW20G35 29.71R WCI 21  
 

 
 
 
CLICK HERE TO GO TO PREVIOUS BULLETINS.

The Nexlab PA Page
The Nexlab NJ Page
The Nexlab DE Page
The Nexlab MD Page Main Text Page